Home > Weather > Khartoum > Past weeks

Flag for Sudan Past Weather in Khartoum, Sudan — Yesterday and Last 2 Weeks

Now
100 °F

Sunny.


Feels Like: 97 °F
Forecast: 83 / 106 °F
Wind: 10 mph from South

Location: Khartoum Airport

Current Time: Jul 1, 2016 at 12:52:49 PM

Latest Report: Jul 1, 2016 at 12:30 PM


Visibility: 10 mi

Pressure: 29.86 "Hg

Humidity: 18%

Dew Point: 50 °F

Location of KhartoumLocation

Past Weather in Khartoum — Graph

°F

Khartoum Temperature Yesterday

Maximum temperature yesterday: 106 °F (at 5:00 PM)
Minimum temperature yesterday: 86 °F (at 7:00 AM)
Average temperature yesterday: 98 °F

High & Low Weather Summary for the Past Weeks

 TemperatureHumidityPressure
High108 °F (Jun 28, 5:00 PM)74% (Jun 21, 4:00 AM)29.98 "Hg (Jun 21, 4:00 AM)
Low75 °F (Jun 21, 4:00 AM)8% (Jun 28, 5:00 PM)29.56 "Hg (Jun 18, 10:00 PM)
Average93 °F32%29.84 "Hg
* Reported Jun 16 11:00 AM — Jul 1 11:30 AM, Khartoum, Weather by CustomWeather, © 2016

Note: Actual official high and low records may vary slightly from our data, if they occured in-between our weather recording intervals... More about our weather records

Advertising

Khartoum Weather History for the Previous 24 Hours

Scroll right to see more
 ConditionsComfort  
Time TempWeatherWind HumidityBarometerVisibility
11:30 AM
Fri, Jul 1
99 °FSunny.14 mph24%29.86 "Hg10 mi
11:00 AM95 °FSunny.13 mph30%29.86 "Hg10 mi
10:30 AM93 °FSunny.14 mph32%29.89 "Hg10 mi
10:00 AM93 °FSunny.9 mph36%29.89 "Hg10 mi
9:30 AM90 °FSunny.13 mph41%29.89 "Hg10 mi
9:00 AM90 °FSunny.8 mph41%29.89 "Hg10 mi
8:30 AM86 °FSunny.9 mph49%29.89 "Hg10 mi
8:00 AM86 °FSunny.8 mph49%29.89 "Hg10 mi
7:00 AM86 °FSunny.6 mph49%29.86 "Hg10 mi
6:30 AM86 °FSunny.12 mph49%29.86 "Hg10 mi
6:00 AM86 °FClear.12 mph49%29.83 "Hg10 mi
5:30 AM86 °FClear.8 mph49%29.83 "Hg10 mi
5:00 AM88 °FClear.12 mph43%29.83 "Hg10 mi
4:30 AM88 °FClear.8 mph43%29.83 "Hg10 mi
4:00 AM90 °FClear.9 mph36%29.83 "Hg10 mi
3:30 AM90 °FClear.8 mph33%29.83 "Hg10 mi
3:00 AM91 °FClear.5 mph18%29.83 "Hg10 mi
2:30 AM91 °FClear.No wind17%29.83 "Hg10 mi
2:00 AM91 °FClear.No wind16%29.83 "Hg10 mi
1:30 AM91 °FClear.No wind23%29.83 "Hg10 mi
1:00 AM91 °FHaze.No wind23%29.83 "Hg2 mi
12:30 AM93 °FHaze.No wind19%29.86 "Hg2 mi
11:30 PM
Thu, Jun 30
97 °FExtremely hot.No wind16%29.89 "Hg4 mi
11:00 PM95 °FExtremely hot.No wind15%29.86 "Hg4 mi
10:30 PM97 °FExtremely hot.No wind16%29.86 "Hg5 mi
10:00 PM97 °FExtremely hot.No wind16%29.83 "Hg5 mi
9:30 PM99 °FClear.No wind14%29.83 "Hg10 mi
9:00 PM99 °FClear.No wind13%29.83 "Hg10 mi
8:30 PM100 °FClear.No wind11%29.83 "Hg10 mi
8:00 PM100 °FClear.No wind11%29.83 "Hg10 mi
7:30 PM102 °FClear.No wind11%29.80 "Hg10 mi
7:00 PM102 °FSunny.3 mph11%29.80 "Hg10 mi
6:00 PM104 °FSunny.No wind11%29.80 "Hg10 mi
5:30 PM104 °FSunny.3 mph11%29.80 "Hg10 mi
5:00 PM106 °FSunny.2 mph9%29.80 "Hg10 mi
4:30 PM104 °FSunny.2 mph11%29.80 "Hg10 mi
4:00 PM104 °FSunny.2 mph10%29.83 "Hg10 mi
3:30 PM102 °FSunny.3 mph11%29.83 "Hg10 mi
3:00 PM104 °FSunny.3 mph11%29.86 "Hg10 mi
2:30 PM102 °FSunny.5 mph11%29.86 "Hg10 mi
1:30 PM102 °FSunny.9 mph10%29.89 "Hg10 mi
1:00 PM102 °FSunny.2 mph10%N/A10 mi
12:30 PM102 °FSunny.2 mph10%29.89 "Hg10 mi
12:00 PM102 °FSunny.5 mph10%29.89 "Hg10 mi
Weather by CustomWeather, © 2016

See weather overviewHow to use our weather pages